1339977625755,0.864509
1339977685755,0.865772
1339977745755,0.860456
1339977805755,0.861639
1339977865755,0.862295
1339977925755,0.863349
1339977985755,0.868800
1339978045755,0.863406
1339978105755,0.868045
1339978165755,0.865079
1339978225755,0.872735
1339978285755,0.860527
1339978345755,0.861969
1339978405755,0.868218
1339978465755,0.867112
1339978525755,0.868825
1339978585755,0.860590
1339978645755,0.864815
1339978705755,0.866539
1339978765755,0.871349
1339978825755,0.867058
1339978885755,0.866475
1339978945755,0.854940
1339979005755,0.866871
1339979065755,0.860066
1339979125755,0.859797
1339979185755,0.861817
1339979245755,0.867796
1339979305755,0.863490
1339979365755,0.860646
1339979425755,0.862592
1339979485755,0.863877
1339979545755,0.862811
1339979605755,0.851873
1339979665755,0.863847
1339979725755,0.858126
1339979785755,0.860616
1339979845755,0.861023
1339979905755,0.858379
1339979965755,0.854432
1339980025755,0.859747
1339980085755,0.858056
1339980145755,0.862431
1339980205755,0.855529
1339980265755,0.859590
1339980325755,0.862708
1339980385755,0.854622
1339980445755,0.865471
1339980505755,0.857792
1339980565755,0.863076
1339980625755,0.865685
1339980685755,0.863870
1339980745755,0.873517
1339980805755,0.871402
1339980865755,0.870724
1339980925755,0.881395
1339980985755,0.886549
1339981045755,0.888522
1339981105755,0.895654
1339981165755,0.902083
1339981225766,0.916112
1339981285766,0.918869
1339981345766,0.909898
1339981405766,0.906553
1339981465766,0.910997
1339981525766,0.901959
1339981585766,0.902986
1339981645766,0.898428
1339981705766,0.899012
1339981765766,0.890679
1339981825766,0.885191
1339981885766,0.887362
1339981945766,0.884538
1339982005766,0.878926
1339982065766,0.884009
1339982125766,0.875695
1339982185766,0.876588
1339982245766,0.871502
1339982305766,0.877646
1339982365766,0.867978
1339982425766,0.878805
1339982485766,0.872657
1339982545766,0.865677
1339982605766,0.865335
1339982665766,0.863887
1339982725766,0.879369
1339982785766,0.869318
1339982845766,0.860544
1339982905766,0.861764
1339982965766,0.867718
1339983025766,0.864671
1339983085766,0.863102
1339983145766,0.857493
1339983205766,0.864809
1339983265766,0.871963
1339983325766,0.869863
1339983385766,0.867874
1339983445766,0.861246
1339983505766,0.865424
1339983565766,0.864970
1339983625766,0.858310
1339983685766,0.865130
1339983745766,0.859475
1339983805766,0.867237
1339983865766,0.860422
1339983925766,0.860015
1339983985766,0.861860
1339984045766,0.860232
1339984105766,0.861177
1339984165766,0.859417
1339984225766,0.860867
1339984285766,0.852400
1339984345766,0.860321
1339984405766,0.858663
1339984465766,0.863212
1339984525766,0.860026
1339984585766,0.862245
1339984645766,0.856977
1339984705766,0.864171
1339984765766,0.856320
1339984825776,0.857138
1339984885776,0.865752
1339984945776,0.865003
1339985005776,0.874295
1339985065776,0.875602
1339985125776,0.868716
1339985185776,0.874141
1339985245776,0.873259
1339985305776,0.875456
1339985365776,0.877584
1339985425776,0.871952
1339985485776,0.876890
1339985545776,0.877307
1339985605776,0.868777
1339985665776,0.863356
1339985725776,0.866988
1339985785776,0.868455
1339985845776,0.865396
1339985905776,0.876947
1339985965776,0.868290
1339986025776,0.867962
1339986085776,0.879419
1339986145776,0.876324
1339986205776,0.874941
1339986265776,0.878545
1339986325776,0.884682
1339986385776,0.884382
1339986445776,0.898533
1339986505776,0.894943
1339986565776,0.894026
1339986625776,0.889234
1339986685776,0.887643
1339986745776,0.900152
1339986805776,0.891239
1339986865776,0.886583
1339986925776,0.891473
1339986985776,0.891527
1339987045776,0.889305
1339987105776,0.896363
1339987165776,0.889061
1339987225776,0.890097
1339987285776,0.887637
1339987345776,0.886409
1339987405776,0.888040
1339987465776,0.887726
1339987525776,0.894148
1339987585776,0.894396
1339987645776,0.888862
1339987705776,0.896322
1339987765776,0.886247
1339987825776,0.889093
1339987885776,0.890650
1339987945776,0.884872
1339988005776,0.877106
1339988065776,0.887317
1339988125776,0.883770
1339988185776,0.880728
1339988245776,0.888351
1339988305776,0.888093
1339988365776,0.882691
1339988425786,0.880624
1339988485786,0.887168
1339988545786,0.879463
1339988605786,0.883652
1339988665786,0.880037
1339988725786,0.880668
1339988785786,0.891228
1339988845786,0.877409
1339988905786,0.881641
1339988965786,0.875609
1339989025786,0.884171
1339989085786,0.886359
1339989145786,0.882740
1339989205786,0.884075
1339989265786,0.877010
1339989325786,0.875860
1339989385786,0.880304
1339989445786,0.881206
1339989505786,0.882115
1339989565786,0.880053
1339989625786,0.880912
1339989685786,0.877618
1339989745786,0.873697
1339989805786,0.875100
1339989865786,0.874642
1339989925786,0.884044
1339989985786,0.881904
1339990045786,0.876147
1339990105786,0.879505
1339990165786,0.876223
1339990225786,0.871380
1339990285786,0.878476
1339990345786,0.869451
1339990405786,0.880552
1339990465786,0.874662
1339990525786,0.870228
1339990585786,0.879806
1339990645786,0.871182
1339990705786,0.880141
1339990765786,0.869187
1339990825786,0.868542
1339990885786,0.868690
1339990945786,0.870039
1339991005786,0.875043
1339991065786,0.874462
1339991125786,0.875381
1339991185786,0.861611
1339991245786,0.872388
1339991305786,0.875244
1339991365786,0.875562
1339991425786,0.866058
1339991485786,0.867433
1339991545786,0.873566
1339991605786,0.878397
1339991665786,0.861560
1339991725786,0.864542
1339991785786,0.860869
1339991845786,0.874108
1339991905786,0.866865
1339991965786,0.871527
1339992025796,0.857989
1339992085796,0.863872
1339992145796,0.853694
1339992205796,0.872793
1339992265796,0.865144
1339992325796,0.866347
1339992385796,0.868003
1339992445796,0.870666
1339992505796,0.865960
1339992565796,0.865506
1339992625796,0.873552
1339992685796,0.867729
1339992745796,0.862426
1339992805796,0.867519
1339992865796,0.866426
1339992925796,0.863225
1339992985796,0.864625
1339993045796,0.863857
1339993105796,0.861838
1339993165796,0.862399
1339993225796,0.867574
1339993285796,0.874260
1339993345796,0.869331
1339993405796,0.866307
1339993465796,0.870269
1339993525796,0.868894
1339993585796,0.865726
1339993645796,0.865449
1339993705796,0.857871
1339993765796,0.871016
1339993825796,0.867721
1339993885796,0.863529
1339993945796,0.857847
1339994005796,0.870294
1339994065796,0.871742
1339994125796,0.868670
1339994185796,0.866747
1339994245796,0.864456
1339994305796,0.875551
1339994365796,0.875878
1339994425796,0.868382
1339994485796,0.873983
1339994545796,0.864344
1339994605796,0.862561
1339994665796,0.873207
1339994725796,0.872380
1339994785796,0.873154
1339994845796,0.866408
1339994905796,0.872592
1339994965796,0.875291
1339995025796,0.870541
1339995085796,0.863216
1339995145796,0.875917
1339995205796,0.875322
1339995265796,0.861878
1339995325796,0.875489
1339995385796,0.873264
1339995445796,0.870577
1339995505796,0.869838
1339995565796,0.871012
1339995625805,0.868954
1339995685805,0.876302
1339995745805,0.867311
1339995805805,0.869043
1339995865805,0.873825
1339995925805,0.872369
1339995985805,0.865211
1339996045805,0.870625
1339996105805,0.875427
1339996165805,0.867401
1339996225805,0.867291
1339996285805,0.869990
1339996345805,0.871442
1339996405805,0.874461
1339996465805,0.873333
1339996525805,0.870395
1339996585805,0.870234
1339996645806,0.880897
1339996705806,0.876680
1339996765806,0.882097
1339996825805,0.883611
1339996885805,0.883499
1339996945805,0.884452
1339997005805,0.877415
1339997065805,0.878236
1339997125805,0.874985
1339997185805,0.879388
1339997245805,0.870015
1339997305805,0.878563
1339997365805,0.865284
1339997425805,0.869838
1339997485805,0.873779
1339997545805,0.872516
1339997605805,0.867552
1339997665805,0.869275
1339997725805,0.875770
1339997785805,0.868758
1339997845805,0.871837
1339997905805,0.882289
1339997965806,0.872779
1339998025806,0.868086
1339998085806,0.867366
1339998145805,0.870826
1339998205805,0.867608
1339998265805,0.868235
1339998325805,0.862195
1339998385805,0.862109
1339998445805,0.870572
1339998505805,0.866580
1339998565805,0.872356
1339998625805,0.880975
1339998685805,0.874835
1339998745805,0.872788
1339998805805,0.871301
1339998865805,0.871342
1339998925805,0.871129
1339998985805,0.867593
1339999045805,0.876687
1339999105805,0.861538
1339999165805,0.858418
1339999225815,0.863244
1339999285815,0.861930
1339999345815,0.861104
1339999405815,0.862314
1339999465815,0.867015
1339999525815,0.856629
1339999585815,0.858035
1339999645815,0.860436
1339999705815,0.864272
1339999765815,0.858788
1339999825815,0.858953
1339999885815,0.859815
1339999945815,0.859295
1340000005815,0.858659
1340000065815,0.855746
1340000125815,0.862406
1340000185815,0.864128
1340000245815,0.863128
1340000305815,0.864656
1340000365815,0.856223
1340000425815,0.861769
1340000485815,0.855914
1340000545815,0.858933
1340000605815,0.866122
1340000665815,0.860162
1340000725815,0.868710
1340000785815,0.863186
1340000845815,0.861583
1340000905815,0.862042
1340000965815,0.863953
1340001025815,0.863976
1340001085815,0.863635
1340001145815,0.860861
1340001205815,0.856689
1340001265815,0.857563
1340001325815,0.866464
1340001385815,0.860219
1340001445815,0.861963
1340001505815,0.862181
1340001565815,0.859637
1340001625815,0.869847
1340001685815,0.857210
1340001745815,0.868448
1340001805815,0.858706
1340001865815,0.863588
1340001925815,0.864084
1340001985815,0.861683
1340002045815,0.867492
1340002105815,0.860223
1340002165815,0.865376
1340002225815,0.868515
1340002285815,0.859688
1340002345815,0.865350
1340002405815,0.872011
1340002465815,0.868103
1340002525815,0.865837
1340002585815,0.863136
1340002645815,0.863764
1340002705815,0.864745
1340002765815,0.873839
1340002825824,0.881228
1340002885824,0.874042
1340002945824,0.878875
1340003005825,0.883231
1340003065825,0.881613
1340003125825,0.894869
1340003185825,0.888426
1340003245825,0.887008
1340003305825,0.888096
1340003365825,0.892320
1340003425824,0.895451
1340003485824,0.894314
1340003545824,0.903234
1340003605824,0.901312
1340003665824,0.909429
1340003725824,0.903583
1340003785824,0.904065
1340003845824,0.910766
1340003905824,0.909328
1340003965824,0.907101
1340004025825,0.915448
1340004085824,0.912332
1340004145824,0.910287
1340004205824,0.907778
1340004265824,0.907209
1340004325825,0.914125
1340004385825,0.907257
1340004445825,0.908852
1340004505825,0.903321
1340004565825,0.906285
1340004625825,0.909447
1340004685825,0.904038
1340004745824,0.907976
1340004805824,0.903398
1340004865824,0.899082
1340004925824,0.909631
1340004985824,0.903121
1340005045824,0.904590
1340005105824,0.906026
1340005165824,0.903495
1340005225824,0.897474
1340005285824,0.904490
1340005345825,0.904170
1340005405824,0.917588
1340005465824,0.899747
1340005525824,0.897873
1340005585824,0.906519
1340005645824,0.900867
1340005705825,0.900423
1340005765825,0.893876
1340005825825,0.907157
1340005885825,0.898221
1340005945825,0.891321
1340006005825,0.899762
1340006065825,0.901729
1340006125824,0.899067
1340006185824,0.907979
1340006245824,0.901780
1340006305824,0.893940
1340006365824,0.894703
1340006425834,0.898162
1340006485834,0.895706
1340006545834,0.899814
1340006605834,0.888593
1340006665834,0.893518
1340006725834,0.895200
1340006785834,0.895998
1340006845834,0.903122
1340006905834,0.892242
1340006965834,0.901330
1340007025834,0.896115
1340007085834,0.901184
1340007145834,0.902502
1340007205834,0.896775
1340007265834,0.898077
1340007325834,0.897638
1340007385834,0.894594
1340007445834,0.890512
1340007505834,0.887115
1340007565834,0.892681
1340007625834,0.891168
1340007685834,0.883491
1340007745834,0.886324
1340007805834,0.886651
1340007865834,0.889310
1340007925834,0.877990
1340007985834,0.879425
1340008045834,0.884879
1340008105834,0.886649
1340008165834,0.878916
1340008225834,0.882145
1340008285834,0.880045
1340008345834,0.883282
1340008405834,0.881541
1340008465834,0.882051
1340008525834,0.880332
1340008585834,0.878016
1340008645834,0.883288
1340008705834,0.879461
1340008765834,0.876200
1340008825834,0.889532
1340008885834,0.875708
1340008945834,0.872006
1340009005834,0.883529
1340009065834,0.879336
1340009125834,0.878964
1340009185834,0.873366
1340009245834,0.884989
1340009305834,0.878499
1340009365834,0.884487
1340009425834,0.870158
1340009485834,0.866503
1340009545834,0.880669
1340009605834,0.874196
1340009665834,0.867129
1340009725834,0.877856
1340009785834,0.878921
1340009845834,0.875789
1340009905834,0.872869
1340009965834,0.873188
1340010025843,0.871967
1340010085843,0.866394
1340010145843,0.867746
1340010205843,0.864854
1340010265843,0.876042
1340010325843,0.880281
1340010385843,0.872321
1340010445843,0.865364
1340010505843,0.863539
1340010565843,0.877306
1340010625843,0.874664
1340010685843,0.868495
1340010745843,0.865469
1340010805843,0.873120
1340010865843,0.879791
1340010925843,0.870951
1340010985843,0.868978
1340011045843,0.872642
1340011105843,0.873096
1340011165843,0.875172
1340011225843,0.868997
1340011285843,0.876671
1340011345843,0.869887
1340011405843,0.869556
1340011465843,0.871794
1340011525843,0.874622
1340011585843,0.869206
1340011645843,0.870337
1340011705843,0.870746
1340011765843,0.865574
1340011825843,0.875884
1340011885843,0.870598
1340011945843,0.869490
1340012005843,0.880486
1340012065843,0.873511
1340012125843,0.872916
1340012185843,0.873478
1340012245843,0.874234
1340012305843,0.875724
1340012365843,0.873254
1340012425843,0.864838
1340012485843,0.856649
1340012545843,0.868458
1340012605843,0.868376
1340012665843,0.866460
1340012725843,0.874980
1340012785843,0.874161
1340012845843,0.872897
1340012905843,0.881638
1340012965843,0.865134
1340013025843,0.880356
1340013085843,0.863398
1340013145843,0.868318
1340013205843,0.872768
1340013265843,0.867974
1340013325843,0.875423
1340013385843,0.870819
1340013445843,0.867635
1340013505843,0.876689
1340013565843,0.874922
1340013625853,0.870598
1340013685853,0.866587
1340013745853,0.873731
1340013805853,0.876969
1340013865853,0.872267
1340013925853,0.864689
1340013985853,0.869836
1340014045853,0.866651
1340014105853,0.875004
1340014165853,0.878455
1340014225853,0.873770
1340014285853,0.873481
1340014345853,0.863903
1340014405853,0.876699
1340014465853,0.862101
1340014525853,0.864385
1340014585853,0.866079
1340014645853,0.870469
1340014705853,0.874107
1340014765853,0.875381
1340014825853,0.870332
1340014885853,0.875312
1340014945853,0.871362
1340015005853,0.878873
1340015065853,0.876007
1340015125853,0.873368
1340015185853,0.873614
1340015245853,0.871949
1340015305853,0.882198
1340015365853,0.875658
1340015425853,0.875694
1340015485853,0.879775
1340015545853,0.880192
1340015605853,0.875629
1340015665853,0.866037
1340015725853,0.876382
1340015785853,0.875744
1340015845853,0.880354
1340015905853,0.876882
1340015965853,0.870226
1340016025853,0.881265
1340016085853,0.877613
1340016145853,0.877636
1340016205853,0.878344
1340016265853,0.873659
1340016325853,0.879046
1340016385853,0.876562
1340016445853,0.884066
1340016505853,0.887752
1340016565853,0.878215
1340016625853,0.880225
1340016685853,0.883910
1340016745853,0.881726
1340016805853,0.873648
1340016865853,0.883212
1340016925853,0.875311
1340016985853,0.871348
1340017045853,0.871631
1340017105853,0.877722
1340017165853,0.872362
1340017225862,0.874499
1340017285862,0.878025
1340017345862,0.877603
1340017405862,0.875404
1340017465862,0.874236
1340017525862,0.874006
1340017585862,0.876367
1340017645862,0.887928
1340017705862,0.873257
1340017765862,0.878229
1340017825862,0.877278
1340017885862,0.876635
1340017945862,0.878035
1340018005862,0.879933
1340018065862,0.871345
1340018125862,0.867930
1340018185862,0.872834
1340018245862,0.882806
1340018305862,0.871557
1340018365862,0.884800
1340018425862,0.879952
1340018485862,0.871564
1340018545862,0.876030
1340018605862,0.865449
1340018665862,0.877158
1340018725862,0.875754
1340018785862,0.883818
1340018845862,0.871369
1340018905862,0.874627
1340018965862,0.872042
1340019025862,0.879989
1340019085862,0.875135
1340019145862,0.874261
1340019205862,0.872831
1340019265862,0.882437
1340019325862,0.876503
1340019385862,0.875288
1340019445862,0.878092
1340019505862,0.877029
1340019565862,0.877493
1340019625862,0.868383
1340019685862,0.867526
1340019745862,0.868811
1340019805862,0.867318
1340019865862,0.874845
1340019925862,0.872859
1340019985862,0.865052
1340020045862,0.862620
1340020105862,0.861379
1340020165862,0.865569
1340020225862,0.862114
1340020285862,0.860873
1340020345862,0.856851
1340020405862,0.864378
1340020465862,0.871444
1340020525862,0.865243
1340020585862,0.871454
1340020645862,0.865168
1340020705862,0.877257
1340020765862,0.873878
1340020825855,0.873178
1340020885855,0.880164
1340020945855,0.871849
1340021005855,0.873903
1340021065855,0.874946
1340021125855,0.874116
1340021185855,0.862440
1340021245855,0.866928
1340021305855,0.862675
1340021365855,0.862973
1340021425855,0.861307
1340021485855,0.870894
1340021545855,0.859946
1340021605855,0.855556
1340021665855,0.864836
1340021725855,0.857001
1340021785855,0.856466
1340021845855,0.865568
1340021905855,0.866146
1340021965855,0.858338
1340022025855,0.866066
1340022085855,0.866316
1340022145855,0.859976
1340022205855,0.863567
1340022265855,0.865714
1340022325855,0.863462
1340022385855,0.856374
1340022445855,0.870968
1340022505855,0.867586
1340022565855,0.866426
1340022625855,0.856315
1340022685855,0.867787
1340022745855,0.860590
1340022805855,0.867386
1340022865855,0.866310
1340022925855,0.854558
1340022985855,0.854828
1340023045855,0.863761
1340023105855,0.865979
1340023165855,0.861189
1340023225855,0.860551
1340023285855,0.857675
1340023345855,0.859072
1340023405855,0.865096
1340023465855,0.865070
1340023525855,0.866336
1340023585855,0.862913
1340023645855,0.860182
1340023705855,0.860684
1340023765855,0.863271
1340023825855,0.857671
1340023885855,0.863737
1340023945855,0.859900
1340024005855,0.864002
1340024065855,0.861545
1340024125855,0.860541
1340024185855,0.862279
1340024245855,0.859998
1340024305855,0.864077
1340024365855,0.865150
1340024425864,0.868151
1340024485864,0.856397
1340024545864,0.858463
1340024605864,0.855315
1340024665864,0.866036
1340024725864,0.864168
1340024785864,0.863456
1340024845864,0.860986
1340024905864,0.865519
1340024965864,0.852911
1340025025864,0.861045
1340025085864,0.869200
1340025625864,0.855960
1340025685864,0.854206
1340025745864,0.850227
1340025805864,0.867022
1340025865864,0.853759
1340025925864,0.861373
1340025985864,0.855191
1340026045864,0.858166
1340026105864,0.862115
1340026165864,0.862326
1340026225864,0.857366
1340026285864,0.859799
1340026345864,0.857296
1340026405864,0.859127
1340026465864,0.860035
1340026525864,0.865737
1340026585864,0.863739
1340026645864,0.864744
1340026705864,0.865533
1340026765864,0.855267
1340026825864,0.858781
1340026885864,0.867514
1340026945864,0.853853
1340027005864,0.862380
1340027065864,0.861878
1340027125864,0.862084
1340027185864,0.857965
1340027245864,0.866110
1340027305864,0.856327
1340027365864,0.864806
1340027425864,0.855569
1340027485864,0.871567
1340027545864,0.855819
1340027605864,0.860239
1340027665864,0.859677
1340027725864,0.866504
1340027785864,0.860671
1340027845864,0.860043
1340027905864,0.859623
1340027965864,0.860522
1340028025873,0.857281
1340028085873,0.863485
1340028145873,0.855059
1340028205873,0.863310
1340028265873,0.861897
1340028325873,0.865720
1340028385873,0.866919
1340028445873,0.864374
1340028505873,0.863012
1340028565873,0.863612
1340028625873,0.867735
1340028685873,0.862074
1340028745873,0.870544
1340028805873,0.863488
1340028865873,0.868508
1340028925873,0.864123
1340028985873,0.855902
1340029045873,0.865023
1340029105873,0.864160
1340029165873,0.866498
1340029225873,0.861429
1340029285873,0.867540
1340029345873,0.864215
1340029405873,0.866210
1340029465873,0.868866
1340029525873,0.868859
1340029585873,0.859420
1340029645873,0.860907
1340029705873,0.861848
1340029765873,0.868824
1340029825873,0.867512
1340029885873,0.867186
1340029945873,0.866179
1340030005873,0.866130
1340030065873,0.859148
1340030125873,0.860740
1340030185873,0.860404
1340030245873,0.861439
1340030305873,0.868620
1340030365873,0.858039
1340030425873,0.865562
1340030485873,0.877917
1340030545873,0.861828
1340030605873,0.861930
1340030665873,0.865017
1340030725873,0.862658
1340030785873,0.861576
1340030845873,0.862201
1340030905873,0.857705
1340030965873,0.864719
1340031025873,0.863857
1340031085873,0.865439
1340031145873,0.858493
1340031205873,0.868455
1340031265873,0.865492
1340031325873,0.858480
1340031385873,0.866813
1340031445873,0.859072
1340031505873,0.851179
1340031565873,0.861047
1340031625883,0.855610
1340031685883,0.858716
1340031745883,0.863680
1340031805883,0.855509
1340031865883,0.865533
1340031925883,0.862695
1340031985883,0.864142
1340032045883,0.855887
1340032105883,0.858265
1340032165883,0.865171
1340032225883,0.869886
1340032285883,0.861700
1340032345883,0.860492
1340032405883,0.853984
1340032465883,0.859232
1340032525883,0.860010
1340032585883,0.855642
1340032645883,0.863859
1340032705883,0.871872
1340032765883,0.863848
1340032825883,0.858608
1340032885883,0.857619
1340032945883,0.860835
1340033005883,0.857489
1340033065883,0.866076
1340033125883,0.862815
1340033185883,0.861516
1340033245883,0.861544
1340033305883,0.860661
1340033365883,0.855861
1340033425883,0.859867
1340033485883,0.864311
1340033545883,0.863067
1340033605883,0.862041
1340033665883,0.861900
1340033725883,0.865544
1340033785883,0.870047
1340033845883,0.871553
1340033905883,0.859218
1340033965883,0.863144
1340034025883,0.856242
1340034085883,0.867478
1340034145883,0.864670
1340034205883,0.859077
1340034265883,0.862766
1340034325883,0.864958
1340034385883,0.856638
1340034445883,0.863518
1340034505883,0.867526
1340034565883,0.864206
1340034625883,0.863605
1340034685883,0.864607
1340034745883,0.863968
1340034805883,0.862325
1340034865883,0.862951
1340034925883,0.868296
1340034985883,0.860477
1340035045883,0.871933
1340035105883,0.863372
1340035165883,0.863390
1340035225892,0.860625
1340035285892,0.863420
1340035345892,0.867878
1340035405892,0.867276
1340035465892,0.860800
1340035525892,0.869082
1340035585892,0.863065
1340035645892,0.864824
1340035705892,0.866399
1340035765892,0.869731
1340035825892,0.862540
1340035885892,0.866003
1340035945892,0.863205
1340036005892,0.866955
1340036065892,0.865725
1340036125892,0.860916
1340036185892,0.865869
1340036245892,0.862052
1340036305892,0.861371
1340036365892,0.858928
1340036425892,0.862939
1340036485892,0.869204
1340036545892,0.864889
1340036605892,0.861176
1340036665892,0.859462
1340036725892,0.865080
1340036785892,0.868844
1340036845892,0.858096
1340036905892,0.862762
1340036965892,0.867065
1340037025892,0.860483
1340037085892,0.867147
1340037145892,0.855135
1340037205892,0.859483
1340037265892,0.867628
1340037325892,0.864399
1340037385892,0.868188
1340037445892,0.860160
1340037505892,0.865369
1340037565892,0.867732
1340037625892,0.864756
1340037685892,0.866102
1340037745892,0.866310
1340037805892,0.861773
1340037865892,0.870280
1340037925892,0.875062
1340037985892,0.864991
1340038045892,0.868683
1340038105892,0.865107
1340038165892,0.861627
1340038225892,0.867408
1340038285892,0.869867
1340038345892,0.866758
1340038405892,0.866669
1340038465892,0.867739
1340038525892,0.868026
1340038585892,0.866105
1340038645892,0.877490
1340038705892,0.866785
1340038765892,0.868716
1340038825902,0.870927
1340038885902,0.869306
1340038945902,0.868911
1340039005902,0.866096
1340039065902,0.863912
1340039125902,0.868873
1340039185902,0.865975
1340039245902,0.865103
1340039305902,0.869927
1340039365902,0.865067
1340039425902,0.870191
1340039485902,0.862211
1340039545902,0.865075
1340039605902,0.868888
1340039665902,0.868660
1340039725902,0.862384
1340039785902,0.863448
1340039845902,0.867585
1340039905902,0.862655
1340039965902,0.866266
1340040025902,0.867373
1340040085902,0.860379
1340040145902,0.866175
1340040205902,0.871374
1340040265902,0.864965
1340040325902,0.867568
1340040385902,0.865481
1340040445902,0.858328
1340040505902,0.865864
1340040565902,0.864382
1340040625902,0.871302